STARLINK-1676

Last updated on Fri Nov 06 2020 00:02:03 GMT+0000 (Coordinated Universal Time)

1 46556U 20070AA 20310.58343750 -.01089971 00000-0 -18113-1 0 9998 2 46556 53.0000 294.3713 0001150 72.0404 339.1205 15.54241314 1777

Satellite not in orbit